Flag for Israel Weather past 2 weeks in Netanya, Israel

Now
86 °F

Passing clouds.


Feels Like: 93 °F
Forecast: 74 / 84 °F
Wind: 10 mph from West

Location: Dov Airport

Current Time: Jul 24, 2014 at 1:58:35 PM

Latest Report: Jul 24, 2014 at 12:50 PM


Visibility: N/A

Pressure: 29.77 "Hg

Humidity: 66%

Dew point: 73 °F

Location of NetanyaLocation

Historic Weather in Netanya — Graph

°F

Netanya temperature yesterday

Maximum temperature yesterday: 86 °F (at 10:50 AM)
Minimum temperature yesterday: 77 °F (at 5:50 AM)
Average temperature yesterday: 83 °F

Past Weeks' High & Low Weather Summary

 TemperatureHumidityPressure
High88 °F (Jul 10, 11:50 AM)89% (Jul 24, 6:50 AM)29.89 "Hg (Jul 24, 6:50 AM)
Low75 °F (Jul 10, 5:50 AM)55% (Jul 14, 1:50 PM)29.71 "Hg (Jul 10, 4:50 AM)
Average83 °F68%29.78 "Hg
* Reported Jul 9 11:50 AM — Jul 24 11:50 AM, Netanya, Weather by CustomWeather, © 2014

Note: Actual official high and low records may vary slightly from our data, if they occured in-between our weather recording intervals... More about our weather records

Advertising

Netanya weather history for previous 24 hours

 ConditionsComfort  
Time TempWeatherWind HumidityBarometerVisibility
11:50 AM
Jul 24
84 °FSunny.13 mph70%29.77 "Hg10 mi
10:50 AM86 °FPassing clouds.9 mph66%29.77 "HgN/A
9:50 AM84 °FPassing clouds.7 mph70%29.77 "HgN/A
8:50 AM84 °FScattered clouds.7 mph70%29.77 "HgN/A
7:50 AM82 °FPassing clouds.3 mph79%29.77 "HgN/A
6:50 AM77 °FPassing clouds.5 mph89%29.74 "Hg6 mi
5:50 AM77 °FPassing clouds.5 mph83%29.74 "Hg6 mi
4:50 AM79 °FPassing clouds.2 mph79%29.74 "HgN/A
3:50 AM79 °FPassing clouds.5 mph79%29.74 "HgN/A
2:50 AM79 °FPassing clouds.5 mph84%29.77 "HgN/A
1:50 AM81 °FPassing clouds.6 mph79%29.77 "HgN/A
12:50 AM81 °FPassing clouds.5 mph79%29.77 "HgN/A
11:50 PM
Jul 23
81 °FPassing clouds.3 mph79%29.80 "HgN/A
10:50 PM81 °FPassing clouds.3 mph79%29.80 "HgN/A
9:50 PM81 °FPassing clouds.3 mph79%29.80 "HgN/A
8:50 PM81 °FPassing clouds.5 mph79%29.77 "HgN/A
7:50 PM82 °FScattered clouds.7 mph74%29.77 "HgN/A
6:50 PM84 °FScattered clouds.9 mph74%29.77 "HgN/A
5:50 PM84 °FScattered clouds.10 mph74%29.74 "HgN/A
4:50 PM86 °FScattered clouds.12 mph70%29.74 "HgN/A
3:50 PM86 °FPassing clouds.12 mph70%29.74 "HgN/A
1:50 PM86 °FSunny.12 mph70%29.77 "Hg10 mi
Weather by CustomWeather, © 2014

See weather overviewHow to use our weather pages